Hilton Head Island, SC

11:58 AM EDT on March 27, 2017 (GMT -0400)
Hilton Head

Weather History for KHXD - March, 2014

Change the Weather History Date:

Wednesday, March 19, 2014

  Actual Average Record
Temperature  
Mean Temperature 52 °F -  
Max Temperature 60 °F 70 °F 87 °F (1963)
Min Temperature 44 °F 48 °F 31 °F (1978)
Degree Days  
Heating Degree Days 13    
Growing Degree Days 2 (Base 50)    
Moisture  
Dew Point 46 °F    
Average Humidity 89    
Maximum Humidity 100    
Minimum Humidity 63    
Precipitation  
Precipitation 0.00 in - - ()
Sea Level Pressure  
Sea Level Pressure 30.13 in    
Wind  
Wind Speed 4 mph (NW)    
Max Wind Speed 10 mph    
Max Gust Speed -    
Visibility 8 miles    
Events      
Averages and records for this station are not official NWS values.
T = Trace of Precipitation, MM = Missing Value Source: NWS Daily Summary

Daily Weather History Graph

Daily Weather History Graph

Search for Another Location

Airport or City:

Trip Planner

Search our weather history database for the weather conditions in past years. The results will help you decide how hot, cold, wet, or windy it might be!

Date:

Astronomy

Mar. 19, 2014 Rise Set
Actual Time 7:27 AM EDT 7:33 PM EDT
Civil Twilight 7:03 AM EDT 7:58 PM EDT
Nautical Twilight 6:34 AM EDT 8:26 PM EDT
Astronomical Twilight 6:06 AM EDT 8:55 PM EDT
Moon 10:38 PM EDT (3/19) 9:03 AM EDT (3/19)
Length of Visible Light 12h 54m
Length of Day
12h 05m
Waning Gibbous, 91% of the Moon is Illuminated
Mar 19
Waning Gibbous
Mar 23
Last Quarter
Mar 30
New
Apr 7
First Quarter
Apr 15
Full

Hourly Weather History & Observations

Time (EDT) Temp. Windchill Dew Point Humidity Pressure Visibility Wind Dir Wind Speed Gust Speed Precip Events Conditions
12:15 AM 46.4 °F 43.5 °F 42.8 °F 87% 30.14 in 10.0 mi North 5.8 mph - 0.00 in   Overcast
12:35 AM 46.4 °F 45.2 °F 42.8 °F 87% 30.15 in 10.0 mi NNE 3.5 mph - 0.00 in   Overcast
12:55 AM 46.4 °F 44.3 °F 42.8 °F 87% 30.15 in 10.0 mi NNE 4.6 mph - 0.00 in   Overcast
1:15 AM 46.4 °F 45.2 °F 42.8 °F 87% 30.15 in 10.0 mi NNE 3.5 mph - 0.00 in   Overcast
1:35 AM 44.6 °F - 42.8 °F 93% 30.15 in 10.0 mi Calm Calm - 0.00 in   Overcast
1:55 AM 46.4 °F 45.2 °F 42.8 °F 87% 30.15 in 10.0 mi North 3.5 mph - 0.00 in   Overcast
2:15 AM 46.4 °F - 42.8 °F 87% 30.15 in 9.0 mi Calm Calm - 0.00 in   Overcast
2:35 AM 46.4 °F - 42.8 °F 87% 30.16 in 9.0 mi Calm Calm - 0.00 in   Overcast
2:55 AM 46.4 °F - 42.8 °F 87% 30.15 in 8.0 mi Calm Calm - 0.00 in   Overcast
3:15 AM 46.4 °F - 42.8 °F 87% 30.15 in 8.0 mi Calm Calm - 0.00 in   Overcast
3:35 AM 46.4 °F 45.2 °F 44.6 °F 93% 30.14 in 9.0 mi NNW 3.5 mph - 0.00 in   Overcast
3:55 AM 46.4 °F 44.3 °F 44.6 °F 93% 30.13 in 9.0 mi North 4.6 mph - 0.00 in   Overcast
4:15 AM 46.4 °F 45.2 °F 44.6 °F 93% 30.13 in 8.0 mi NNW 3.5 mph - 0.00 in   Overcast
4:35 AM 46.4 °F 44.3 °F 44.6 °F 93% 30.13 in 9.0 mi NNW 4.6 mph - 0.00 in   Overcast
4:55 AM 46.4 °F 43.5 °F 44.6 °F 93% 30.14 in 7.0 mi NNW 5.8 mph - 0.00 in   Overcast
5:15 AM 46.4 °F - 44.6 °F 93% 30.14 in 4.0 mi Calm Calm - 0.00 in   Overcast
5:35 AM 46.4 °F - 44.6 °F 93% 30.15 in 4.0 mi Calm Calm - 0.00 in   Overcast
6:50 AM 44.6 °F 41.4 °F 44.6 °F 100% 30.16 in 5.0 mi WNW 5.8 mph - N/A   Light Drizzle
7:50 AM 44.6 °F 41.4 °F 44.6 °F 100% 30.17 in 6.0 mi WNW 5.8 mph - N/A   Overcast
8:50 AM 44.6 °F 41.4 °F 42.8 °F 93% 30.19 in 8.0 mi WSW 5.8 mph - N/A   Overcast
9:50 AM 44.6 °F 41.4 °F 42.8 °F 93% - 8.0 mi WSW 5.8 mph - N/A   Overcast
10:50 AM 46.4 °F - 42.8 °F 87% - 10.0 mi Calm Calm - N/A   Overcast
11:50 AM 46.4 °F 42.9 °F 42.8 °F 87% - 10.0 mi North 6.9 mph - N/A   Overcast
12:30 PM 48.2 °F - 44.6 °F 87% - 10.0 mi North 8.1 mph - N/A   Overcast
12:50 PM 48.2 °F - 44.6 °F 87% - 10.0 mi North 8.1 mph - N/A   Overcast
1:50 PM 51.8 °F - 44.6 °F 76% - 10.0 mi NNW 10.4 mph - N/A   Mostly Cloudy
2:10 PM 51.8 °F - 46.4 °F 82% 30.14 in 10.0 mi North 10.4 mph - N/A   Scattered Clouds
2:50 PM 55.4 °F - 46.4 °F 72% - 10.0 mi North 8.1 mph - N/A   Clear
3:50 PM 57.2 °F - 48.2 °F 72% - 10.0 mi North 9.2 mph - N/A   Clear
4:50 PM 60.8 °F - 48.2 °F 63% - 10.0 mi South 5.8 mph - N/A   Clear
5:50 PM 57.2 °F - 48.2 °F 72% - 10.0 mi SSE 5.8 mph - N/A   Clear
6:50 PM 55.4 °F - 48.2 °F 77% - 10.0 mi SSE 4.6 mph - N/A   Clear
7:50 PM 51.8 °F - 48.2 °F 88% - 10.0 mi South 4.6 mph - N/A   Clear
8:15 PM 51.8 °F - 50.0 °F 94% 30.08 in 9.0 mi South 4.6 mph - 0.00 in   Clear
8:35 PM 51.8 °F - 50.0 °F 94% 30.09 in 9.0 mi South 4.6 mph - 0.00 in   Clear
8:55 PM 51.8 °F - 50.0 °F 94% 30.09 in 7.0 mi South 3.5 mph - 0.00 in   Clear
9:15 PM 51.8 °F - 50.0 °F 94% 30.10 in 6.0 mi South 4.6 mph - 0.00 in   Clear
9:35 PM 51.8 °F - 50.0 °F 94% 30.10 in 5.0 mi South 3.5 mph - 0.00 in   Clear
9:55 PM 50.0 °F - 48.2 °F 94% 30.10 in 4.0 mi Calm Calm - 0.00 in   Clear
10:15 PM 48.2 °F - 48.2 °F 100% 30.10 in 3.0 mi South 3.5 mph - 0.00 in   Clear
10:35 PM 50.0 °F - 48.2 °F 94% 30.10 in 2.5 mi South 4.6 mph - 0.00 in   Clear
10:55 PM 48.2 °F - 48.2 °F 100% 30.11 in 2.0 mi Calm Calm - 0.00 in   Clear
11:15 PM 48.2 °F - 48.2 °F 100% 30.11 in 2.0 mi Calm Calm - 0.00 in   Clear
11:35 PM 48.2 °F - 48.2 °F 100% 30.11 in 3.0 mi South 3.5 mph - 0.00 in   Clear
11:55 PM 48.2 °F - 48.2 °F 100% 30.10 in 2.0 mi South 3.5 mph - 0.00 in   Clear